Regional Weather Roundup
Issued by NWS

Home | Current Version | Previous Version | Text Only | Print | Product List | Glossary Off
Versions: 1 2 3 4 5 6 7 8 9 10 11 12 13 14 15 16 17 18 19 20 21 22 23 24 25 26 27 28 29 30 31 32 33 34 35 36 37 38 39 40 41 42 43 44 45 46 47 48 49 50

000
ASUS43 KMKX 180611
RWRWI

WISCONSIN REGIONAL WEATHER ROUNDUP
NATIONAL WEATHER SERVICE MILWAUKEE/SULLIVAN WI
100 AM CDT SAT APR 18 2015

NOTE: "FAIR" INDICATES FEW OR NO CLOUDS BELOW 12,000 FEET WITH NO
SIGNIFICANT WEATHER AND/OR OBSTRUCTIONS TO VISIBILITY.

WIZ001-002-006>008-014>016-023>028-180700-
NORTHWEST WISCONSIN

CITY           SKY/WX    TMP DP  RH WIND       PRES   REMARKS
SUPERIOR ARPT  FAIR      51  27  39 NE8       30.09R
6HR MIN TEMP:  49; 6HR MAX TEMP:  70;

ASHLAND        FAIR      51  30  44 N16       30.11R
6HR MIN TEMP:  48; 6HR MAX TEMP:  70;

HAYWARD        FAIR      45  28  51 NE6       30.06R
6HR MIN TEMP:  42; 6HR MAX TEMP:  71;

SIREN          FAIR      46  29  52 N8        30.05R
6HR MIN TEMP:  40; 6HR MAX TEMP:  69;

CUMBERLAND     FAIR      43  32  65 CALM      30.04R
RICE LAKE      FAIR      42  37  82 CALM      30.05S
6HR MIN TEMP:  42; 6HR MAX TEMP:  69;

CHETEK         FAIR      42  35  76 CALM      30.04S
6HR MIN TEMP:  42; 6HR MAX TEMP:  69;

LADYSMITH      FAIR      50  34  55 CALM      30.05R
6HR MIN TEMP:  46; 6HR MAX TEMP:  70;

EAU CLAIRE     FAIR      46  31  55 CALM      30.02S
6HR MIN TEMP:  46; 6HR MAX TEMP:  71;

MENOMONIE      FAIR      49  39  66 CALM      30.03S
6HR MIN TEMP:  49; 6HR MAX TEMP:  72;

NEW RICHMOND   FAIR      43  38  83 CALM      30.04S
6HR MIN TEMP:  43; 6HR MAX TEMP:  71;

OSCEOLA        FAIR      44  35  71 CALM      30.07R
6HR MIN TEMP:  43; 6HR MAX TEMP:  71;

$$

WIZ003>005-009-010-017-018-180700-
NORTH CENTRAL WISCONSIN

CITY           SKY/WX    TMP DP  RH WIND       PRES   REMARKS
MANITOWISH WTR FAIR      52  28  38 N10       30.06R
6HR MIN TEMP:  38; 6HR MAX TEMP:  67;

ARBOR VITAE    FAIR      53  30  42 N13       30.04R
6HR MIN TEMP:  42; 6HR MAX TEMP:  69;

WOODRUFF       FAIR      53  30  42 N13       30.04R
6HR MIN TEMP:  42; 6HR MAX TEMP:  69;

RHINELANDER    FAIR      52  27  38 W5        30.02F
6HR MIN TEMP:  50; 6HR MAX TEMP:  70;

EAGLE RIVER    FAIR      49  26  40 N8        30.04R
6HR MIN TEMP:  37; 6HR MAX TEMP:  68;

LAND O LAKES   FAIR      53  25  33 N10G17    30.06R
6HR MIN TEMP:  35; 6HR MAX TEMP:  67;

PHILLIPS       FAIR      44  32  63 CALM      30.02F
6HR MIN TEMP:  43; 6HR MAX TEMP:  69;

TOMAHAWK       FAIR      45  29  55 CALM      30.03F
6HR MIN TEMP:  41; 6HR MAX TEMP:  69;

MEDFORD        FAIR      52  28  40 CALM      30.04R
6HR MIN TEMP:  49; 6HR MAX TEMP:  68;

MERRILL        FAIR      42  35  74 CALM      30.02S
6HR MIN TEMP:  42; 6HR MAX TEMP:  70;

$$

WIZ029-030-035-036-043>047-180700-
CENTRAL WISCONSIN

CITY           SKY/WX    TMP DP  RH WIND       PRES   REMARKS
WAUSAU         FAIR      52  39  61 NW5       30.01R
6HR MIN TEMP:  52; 6HR MAX TEMP:  70;

MOSINEE        FAIR      52  34  50 NW6       30.03S
MARSHFIELD     FAIR      53  36  52 N9        30.03R
6HR MIN TEMP:  52; 6HR MAX TEMP:  71;

STEVENS POINT  FAIR      44  39  83 CALM      30.03R
6HR MIN TEMP:  43; 6HR MAX TEMP:  71;

WAUPACA        FAIR      50  43  77 CALM      30.01S
6HR MIN TEMP:  50; 6HR MAX TEMP:  75;

WAUTOMA        FAIR      47  42  82 CALM      30.02R
6HR MIN TEMP:  47; 6HR MAX TEMP:  75;

WISC RAPIDS    FAIR      55  37  50 N8        30.03R
6HR MIN TEMP:  50; 6HR MAX TEMP:  74;

CAMP DOUGLAS   FAIR      49  48  97 W5        30.02R
6HR MIN TEMP:  46; 6HR MAX TEMP:  73;

$$

WIZ011>013-019>022-031-037>040-048>050-180700-
NORTHEAST WISCONSIN

CITY           SKY/WX    TMP DP  RH WIND       PRES   REMARKS
ANTIGO         FAIR      48  39  71 CALM      30.02S
SHAWANO        FAIR      51  43  74 CALM      30.00R
6HR MIN TEMP:  49; 6HR MAX TEMP:  75;

OCONTO         FAIR      40  37  89 CALM      29.99F
6HR MIN TEMP:  40; 6HR MAX TEMP:  59;

STURGEON BAY   FAIR      46  37  71 NW5       30.01S
6HR MIN TEMP:  45; 6HR MAX TEMP:  55;

GREEN BAY      FAIR      50  44  80 W6        29.99R
6HR MIN TEMP:  50; 6HR MAX TEMP:  66;

MANITOWOC      FAIR      55  42  61 W7        29.99S
6HR MIN TEMP:  43; 6HR MAX TEMP:  55;

APPLETON       FAIR      50  43  76 W8        30.01R
CLINTONVILLE   FAIR      48  43  81 CALM      30.00S
OSHKOSH        FAIR      57  43  59 W7        30.00R
6HR MIN TEMP:  55; 6HR MAX TEMP:  68;

$$

WIZ032>034-041-042-053>061-180700-
SOUTHWEST WISCONSIN

CITY           SKY/WX    TMP DP  RH WIND       PRES   REMARKS
LA CROSSE      FAIR      57  50  77 CALM      30.02R
6HR MIN TEMP:  53; 6HR MAX TEMP:  75;

SPARTA         FAIR      45  40  82 CALM      30.04S
6HR MIN TEMP:  44; 6HR MAX TEMP:  74;

VIROQUA        FAIR      59  42  54 N3        30.04S
6HR MIN TEMP:  59; 6HR MAX TEMP:  72;

BOSCOBEL       FAIR      49  44  83 CALM      30.02R
6HR MIN TEMP:  49; 6HR MAX TEMP:  76;

PRAIRIE DU CHI FAIR      53  45  72 CALM      30.02R
6HR MIN TEMP:  53; 6HR MAX TEMP:  75;

PLATTEVILLE    FAIR      63  43  49 N3        30.02S
6HR MIN TEMP:  61; 6HR MAX TEMP:  72;

$$

WIZ056-057-062-063-064-067-068-180700-
SOUTH CENTRAL WISCONSIN

CITY           SKY/WX    TMP DP  RH WIND       PRES   REMARKS
REEDSBURG      FAIR      53  46  79 CALM      30.02R
6HR MIN TEMP:  53; 6HR MAX TEMP:  73;

BARABOO/DELLS  FAIR      52  42  67 CALM      30.02S
6HR MIN TEMP:  52; 6HR MAX TEMP:  73;

LONE ROCK      FAIR      47  44  90 S3        30.02R
6HR MIN TEMP:  47; 6HR MAX TEMP:  74;

MINERAL POINT  FAIR      63  41  45 CALM      30.03R
MADISON        FAIR      54  45  71 CALM      30.01R
6HR MIN TEMP:  53; 6HR MAX TEMP:  76;

MIDDLETON      FAIR      52  47  82 CALM      30.02S
6HR MIN TEMP:  51; 6HR MAX TEMP:  74;

WATERTOWN      FAIR      49  45  85 CALM      30.01R
6HR MIN TEMP:  48; 6HR MAX TEMP:  70;

MONROE         FAIR      66  45  45 NW9       30.01S
JANESVILLE     FAIR      54  43  66 CALM      30.01R
$$

WIZ051-052-058>065-066-070>072-180700-
SOUTHEAST WISCONSIN

CITY           SKY/WX    TMP DP  RH WIND       PRES   REMARKS
MILWAUKEE      FAIR      54  42  64 S3        30.01R
6HR MIN TEMP:  48; 6HR MAX TEMP:  55;

WAUKESHA       FAIR      48  41  76 CALM      30.01S
MILWAUKEE/TIMM FAIR      52  39  62 CALM      30.01R
RACINE         FAIR      50  42  74 CALM      30.01S HAZE
6HR MIN TEMP:  48; 6HR MAX TEMP:  54;

BURLINGTON     FAIR      46  43  89 CALM      30.00S
6HR MIN TEMP:  46; 6HR MAX TEMP:  65;

KENOSHA        FAIR      49  43  80 SW5       30.00S HAZE
6HR MIN TEMP:  46; 6HR MAX TEMP:  62;

FOND DU LAC    FAIR      54  42  64 SW6       30.00S
6HR MIN TEMP:  53; 6HR MAX TEMP:  68;

SHEBOYGAN      FAIR      50  41  71 SW5       29.99S
6HR MIN TEMP:  47; 6HR MAX TEMP:  57;

WEST BEND      FAIR      50  39  66 CALM      30.01R
JUNEAU         FAIR      54  42  64 CALM      30.02R
6HR MIN TEMP:  53; 6HR MAX TEMP:  68;

$$

LSZ147-162-180700-
LAKE SUPERIOR

STATION/POSITION TIME  TEMP    WIND        PRES    WAVE
                       AIR SEA DIR/SP/G            HT/PER
                 (UTC) (F)     (DEG/KT/KT) (MB)    (FT/S)
DEVILS ISLAND    0600   46      20/ 20/ 22 1020.7R
PORT WING        0500   48      40/ 10/ 16 1018.6
SAXON HARBOR     0500   53      40/  2/  8 1018.3R
$$

LMZ867-665-643>646-180700-
LAKE MICHIGAN

STATION/POSITION TIME  TEMP    WIND        PRES    WAVE
                       AIR SEA DIR/SP/G            HT/PER



USA.gov is the U.S. government's official web portal to all federal, state and local government web resources and services.